Location: Augustenthal
(51.7167°N, 10.2833°E)
Time: 17:29:30
(UTC+00:00)

MTI - Pass Details

Date: 18 May 2021
Orbit: 381 x 388 km, 97.5° (Epoch: 21 June)

Event Time Altitude Azimuth Distance (km) Brightness Sun altitude
Rises 23:02:57 0° 13° (NNE) 2,276 8.9 -18.5°
Reaches altitude 10° 23:04:55 10° 12° (NNE) 1,417 7.6 -18.5°
Maximum altitude 23:07:56 83° 286° (WNW) 393 3.5 -18.5°
Enters shadow 23:08:07 76° 223° (SW) 401 3.4 -18.5°
